This demonstration page uses our WeatherBlox Daily Observations layout. Learn more.

Left ArrowRight Arrow

39.92423, -83.80882

Hourly Observations for December 31, 2015

Temp ( °F °C ) Dew Point ( °F °C ) Humidity (%) Winds ( mph kmh ) Pressure ( in mb ) Visibility ( mi km ) Precip ( " mm )
12:56 am 00:56 Cloudy 33 0.5 30 -1.1 89 89 WNW 10 17 30.24 1024 10 16.0934 0 0
1:56 am 01:56 Cloudy 33 0.5 30 -1.1 89 89 WNW 8 13 30.23 1024 10 16.0934 0 0
2:56 am 02:56 Cloudy 33 0.5 30 -1.1 89 89 WNW 8 13 30.24 1024 10 16.0934 0 0
3:56 am 03:56 Cloudy 32 0 29 -1.6 89 89 W 8 13 30.27 1025 10 16.0934 0 0
4:56 am 04:56 Cloudy 32 0 30 -1.1 92 92 WSW 12 19 30.27 1025 10 16.0934 0 0
5:26 am 05:26 Cloudy 32 0 28 -2 87 87 WSW 10 17 30.3 1026 10 16.0934 0 0
5:56 am 05:56 Cloudy 32 0 29 -1.6 89 89 W 8 13 30.27 1025 10 16.0934 0 0
6:09 am 06:09 Cloudy 32 0 28 -2 87 87 WSW 10 17 30.3 1026 10 16.0934 0 0
6:56 am 06:56 Cloudy 32 0 29 -1.6 89 89 W 12 19 30.29 1026 10 16.0934 0 0
7:56 am 07:56 Cloudy 31 -0.5 28 -2.2 88 88 W 10 17 30.3 1026 10 16.0934 0 0
8:44 am 08:44 Cloudy 30 -1 28 -2 93 93 W 10 17 30.33 1027 7 11.26538 0 0
8:56 am 08:56 Cloudy 31 -0.5 29 -1.6 92 92 W 9 15 30.31 1026 8 12.87472 0 0
9:22 am 09:22 Cloudy 30 -1 28 -2 93 93 WSW 9 15 30.33 1027 10 16.0934 0 0
9:56 am 09:56 Cloudy 31 -0.5 29 -1.6 92 92 WSW 8 13 30.32 1027 9 14.48406 0 0
10:56 am 10:56 Cloudy 31 -0.5 28 -2.2 88 88 WSW 12 19 30.33 1027 10 16.0934 0 0
11:36 am 11:36 Cloudy with Light Snow 30 -1 28 -2 93 93 W 10 17 30.36 1028 2.5 4.02335 0 0.0254
11:48 am 11:48 Cloudy with Light Snow 30 -1 28 -2 93 93 W 8 13 30.36 1028 10 16.0934 0 0.0254
11:56 am 11:56 Cloudy 31 -0.5 28 -2.2 88 88 W 9 15 30.32 1027 10 16.0934 0 0.0254
12:56 pm 12:56 Cloudy 31 -0.5 27 -2.7 85 85 WSW 10 17 30.29 1026 10 16.0934 0 0
1:03 pm 13:03 Cloudy 30 -1 28 -2 93 93 WSW 10 17 30.33 1027 10 16.0934 0 0
1:56 pm 13:56 Cloudy 31 -0.5 28 -2.2 88 88 WSW 12 19 30.29 1026 10 16.0934 0 0
2:56 pm 14:56 Cloudy 30 -1.1 26 -3.3 85 85 WSW 12 19 30.29 1026 10 16.0934 0 0
3:39 pm 15:39 Cloudy 30 -1 27 -3 86 86 WSW 13 20 30.33 1027 10 16.0934 0 0
3:56 pm 15:56 Cloudy 30 -1.1 27 -2.7 89 89 W 15 24 30.3 1026 10 16.0934 0 0.0254
4:56 pm 16:56 Cloudy 29 -1.6 26 -3.3 88 88 W 10 17 30.32 1027 10 16.0934 0 0.0254
5:56 pm 17:56 Cloudy 29 -1.6 26 -3.3 88 88 WSW 12 19 30.33 1027 10 16.0934 0 0
6:29 pm 18:29 Cloudy 28 -2 25 -4 86 86 W 9 15 30.39 1029 10 16.0934 0 0
6:56 pm 18:56 Cloudy 29 -1.6 24 -4.4 81 81 WSW 13 20 30.34 1027 10 16.0934 0 0
7:56 pm 19:56 Cloudy 29 -1.6 25 -3.8 85 85 W 12 19 30.35 1028 10 16.0934 0 0
8:56 pm 20:56 Cloudy 30 -1.1 25 -3.8 82 82 WSW 7 11 30.33 1027 10 16.0934 0 0
9:56 pm 21:56 Cloudy 30 -1.1 25 -3.8 82 82 SW 8 13 30.32 1027 10 16.0934 0 0
10:56 pm 22:56 Cloudy 30 -1.1 25 -3.8 82 82 WSW 10 17 30.32 1027 10 16.0934 0 0
11:56 pm 23:56 Cloudy 30 -1.1 25 -3.8 82 82 WSW 15 24 30.32 1027 10 16.0934 0 0

Powered by AerisWeather